Location: Newark
(5.5500°N, 0.2500°W)
Time: 11:34:32
(UTC+00:00)

Hubble Space Telescope - Pass Details

Date: 29 September 2019
Orbit: 536 x 540 km, 28.5° (Epoch: 13 October)

Event Time Altitude Azimuth Distance (km) Brightness Sun altitude
Exits shadow 04:45:10 27° 232° (SW) 1,039 1.8 -16.7°
Maximum altitude 04:45:58 29° 211° (SSW) 986 1.8 -16.5°
Drops below altitude 10° 04:49:34 10° 149° (SSE) 1,775 3.8 -15.6°
Sets 04:52:02 0° 138° (SE) 2,666 5.0 -15.0°
